Find Kosmos-994

NORAD ID: 10731 Int'l Des: 1978-028 Owner: VMF Country: SU operational
LEOCIRCULARPOLAR

リアルタイム位置

3D地球を読み込み中...

Kosmos-994について

説明を読み込み中...

次回通過

Passes for default location (London). Set your location on the main map for personalized predictions.

高度履歴

Loading altitude history...

軌道要素

1 10731U 78028A 26107.28031691 .00000033 00000-0 18651-4 0 9994
2 10731 82.9314 59.8985 0024440 76.4953 84.0748 13.73423254409449
Epoch: Apr 17, 2026 • Age: 7 hours

現在のステータス

高度 981.7 km
速度 7.38 km/s
衛星直下点 71.55°N, 36.28°E
打ち上げ日 Mar 15, 1978
運用期間 48 years
タイプ other

技術仕様

分類 Payload
質量 800.00 kg
乾燥質量 800.00 kg
総質量 800.00 kg
長さ 5.00 m
直径 2.10 m
スパン 17.00 m
形状 Cyl + Ant
製造者 NPOPM
バスタイプ KAUR-1 11F617
フェーズステータス In Orbit
所有者/国 VMF/SU

Most Searched